"Sample Date","Sample Time","Sample Value","Units","Flow Rate","Number Channels","Micron Size 0","Counts/Channel 0","Micron Size 1","Counts/Channel 1","Micron Size 2","Counts/Channel 2","Micron Size 3","Counts/Channel 3","Micron Size 4","Counts/Channel 4","Micron Size 5","Counts/Channel 5","Micron Size 6","Counts/Channel 6","Micron Size 7","Counts/Channel 7","Micron Size 8","Counts/Channel 8","Micron Size 9","Counts/Channel 9","Micron Size 10","Counts/Channel 10","Micron Size 11","Counts/Channel 11","Micron Size 12","Counts/Channel 12","Micron Size 13","Counts/Channel 13","Micron Size 14","Counts/Channel 14","Micron Size 15","Counts/Channel 15","Micron Size 16","Counts/Channel 16","Micron Size 17","Counts/Channel 17","Micron Size 18","Counts/Channel 18","Micron Size 19","Counts/Channel 19","Micron Size 20","Counts/Channel 20","Micron Size 21","Counts/Channel 21","Micron Size 22","Counts/Channel 22","Micron Size 23","Counts/Channel 23","Micron Size 24","Counts/Channel 24","Micron Size 25","Counts/Channel 25","Micron Size 26","Counts/Channel 26","Micron Size 27","Counts/Channel 27","Micron Size 28","Counts/Channel 28","Micron Size 29","Counts/Channel 29","Micron Size 30","Counts/Channel 30","Micron Size 31","Counts/Channel 31"
"05/11/08","10:00:04",7418.000,"cc",28320.346,6,0.100,6511.000,0.200,845.000,0.300,51.000,0.500,11.000,1.000,0,5.000,0
"05/11/08","10:00:10",4119.000,"cc",28343.393,6,0.100,3567.000,0.200,511.000,0.300,31.000,0.500,10.000,1.000,0,5.000,0
"05/11/08","10:00:16",5283.000,"cc",28336.400,6,0.100,4561.000,0.200,662.000,0.300,50.000,0.500,9.000,1.000,1.000,5.000,0
"05/11/08","10:00:22",4166.000,"cc",28322.041,6,0.100,3619.000,0.200,497.000,0.300,44.000,0.500,6.000,1.000,0,5.000,0
"05/11/08","10:00:28",3425.000,"cc",28313.250,6,0.100,2910.000,0.200,463.000,0.300,43.000,0.500,9.000,1.000,0,5.000,0
"05/11/08","10:00:34",4720.000,"cc",28323.902,6,0.100,4048.000,0.200,607.000,0.300,53.000,0.500,12.000,1.000,0,5.000,0
"05/11/08","10:00:40",4461.000,"cc",28287.068,6,0.100,3825.000,0.200,582.000,0.300,44.000,0.500,10.000,1.000,0,5.000,0
"05/11/08","10:00:46",4562.000,"cc",28337.158,6,0.100,3945.000,0.200,549.000,0.300,65.000,0.500,3.000,1.000,0,5.000,0
"05/11/08","10:00:52",3666.000,"cc",28280.125,6,0.100,3136.000,0.200,480.000,0.300,47.000,0.500,3.000,1.000,0,5.000,0
"05/11/08","10:00:58",5207.000,"cc",28328.906,6,0.100,4440.000,0.200,689.000,0.300,63.000,0.500,15.000,1.000,0,5.000,0
"05/11/08","10:01:04",4652.000,"cc",28305.023,6,0.100,4017.000,0.200,567.000,0.300,55.000,0.500,13.000,1.000,0,5.000,0
"05/11/08","10:01:10",5739.000,"cc",28272.260,6,0.100,5000.000,0.200,667.000,0.300,62.000,0.500,10.000,1.000,0,5.000,0
"05/11/08","10:01:16",3955.000,"cc",28383.863,6,0.100,3394.000,0.200,490.000,0.300,55.000,0.500,16.000,1.000,0,5.000,0
"05/11/08","10:01:22",3255.000,"cc",28338.348,6,0.100,2775.000,0.200,430.000,0.300,42.000,0.500,8.000,1.000,0,5.000,0
"05/11/08","10:01:28",5883.000,"cc",28263.217,6,0.100,5110.000,0.200,696.000,0.300,64.000,0.500,12.000,1.000,1.000,5.000,0
"05/11/08","10:01:34",6575.000,"cc",28277.559,6,0.100,5761.000,0.200,738.000,0.300,61.000,0.500,15.000,1.000,0,5.000,0
"05/11/08","10:01:40",6993.000,"cc",28329.609,6,0.100,6070.000,0.200,848.000,0.300,66.000,0.500,9.000,1.000,0,5.000,0
"05/11/08","10:01:46",5466.000,"cc",28355.953,6,0.100,4679.000,0.200,714.000,0.300,65.000,0.500,8.000,1.000,0,5.000,0
"05/11/08","10:01:52",5338.000,"cc",28336.785,6,0.100,4588.000,0.200,677.000,0.300,61.000,0.500,12.000,1.000,0,5.000,0
"05/11/08","10:01:58",6389.000,"cc",28285.068,6,0.100,5566.000,0.200,736.000,0.300,70.000,0.500,17.000,1.000,0,5.000,0
"05/11/08","10:02:04",5390.000,"cc",28325.561,6,0.100,4656.000,0.200,670.000,0.300,56.000,0.500,8.000,1.000,0,5.000,0
"05/11/08","10:02:10",7445.000,"cc",28365.885,6,0.100,6504.000,0.200,861.000,0.300,64.000,0.500,14.000,1.000,2.000,5.000,0
"05/11/08","10:02:16",6877.000,"cc",28349.273,6,0.100,6018.000,0.200,803.000,0.300,45.000,0.500,10.000,1.000,1.000,5.000,0
"05/11/08","10:02:22",7043.000,"cc",28289.869,6,0.100,6082.000,0.200,879.000,0.300,65.000,0.500,16.000,1.000,1.000,5.000,0
"05/11/08","10:02:28",5664.000,"cc",28300.416,6,0.100,4906.000,0.200,690.000,0.300,59.000,0.500,8.000,1.000,1.000,5.000,0
"05/11/08","10:02:34",3713.000,"cc",28321.441,6,0.100,3189.000,0.200,475.000,0.300,43.000,0.500,6.000,1.000,0,5.000,0
"05/11/08","10:02:40",5328.000,"cc",28339.727,6,0.100,4622.000,0.200,637.000,0.300,57.000,0.500,11.000,1.000,1.000,5.000,0
"05/11/08","10:02:46",3943.000,"cc",28324.793,6,0.100,3434.000,0.200,458.000,0.300,44.000,0.500,7.000,1.000,0,5.000,0
"05/11/08","10:02:52",3852.000,"cc",28337.332,6,0.100,3312.000,0.200,486.000,0.300,46.000,0.500,8.000,1.000,0,5.000,0
"05/11/08","10:02:58",3862.000,"cc",28286.502,6,0.100,3279.000,0.200,523.000,0.300,51.000,0.500,9.000,1.000,0,5.000,0
"05/11/08","10:03:04",4545.000,"cc",28271.195,6,0.100,3901.000,0.200,575.000,0.300,61.000,0.500,8.000,1.000,0,5.000,0
"05/11/08","10:03:10",5916.000,"cc",28385.135,6,0.100,5104.000,0.200,739.000,0.300,58.000,0.500,15.000,1.000,0,5.000,0
"05/11/08","10:03:16",4636.000,"cc",28292.275,6,0.100,3986.000,0.200,604.000,0.300,39.000,0.500,7.000,1.000,0,5.000,0
"05/11/08","10:03:22",5085.000,"cc",28315.408,6,0.100,4372.000,0.200,649.000,0.300,56.000,0.500,8.000,1.000,0,5.000,0
"05/11/08","10:03:28",5735.000,"cc",28304.342,6,0.100,4999.000,0.200,671.000,0.300,62.000,0.500,3.000,1.000,0,5.000,0
"05/11/08","10:03:34",7656.000,"cc",28271.020,6,0.100,6629.000,0.200,938.000,0.300,73.000,0.500,16.000,1.000,0,5.000,0
"05/11/08","10:03:40",12769.000,"cc",28332.109,6,0.100,11200.000,0.200,1472.000,0.300,87.000,0.500,9.000,1.000,1.000,5.000,0
"05/11/08","10:03:46",10429.000,"cc",28318.129,6,0.100,9155.000,0.200,1199.000,0.300,70.000,0.500,4.000,1.000,1.000,5.000,0
"05/11/08","10:03:52",7468.000,"cc",28313.412,6,0.100,6549.000,0.200,861.000,0.300,45.000,0.500,13.000,1.000,0,5.000,0
"05/11/08","10:03:58",8874.000,"cc",28333.647,6,0.100,7781.000,0.200,1032.000,0.300,51.000,0.500,10.000,1.000,0,5.000,0
"05/11/08","10:04:04",6457.000,"cc",28336.127,6,0.100,5620.000,0.200,786.000,0.300,46.000,0.500,4.000,1.000,1.000,5.000,0
"05/11/08","10:04:10",5198.000,"cc",28270.834,6,0.100,4538.000,0.200,605.000,0.300,42.000,0.500,12.000,1.000,1.000,5.000,0
"05/11/08","10:04:16",6522.000,"cc",28351.287,6,0.100,5664.000,0.200,792.000,0.300,55.000,0.500,10.000,1.000,1.000,5.000,0
"05/11/08","10:04:22",5357.000,"cc",28326.830,6,0.100,4664.000,0.200,648.000,0.300,37.000,0.500,8.000,1.000,0,5.000,0
"05/11/08","10:04:28",6452.000,"cc",28287.350,6,0.100,5618.000,0.200,797.000,0.300,33.000,0.500,3.000,1.000,1.000,5.000,0
"05/11/08","10:04:34",4677.000,"cc",28297.221,6,0.100,4057.000,0.200,569.000,0.300,42.000,0.500,9.000,1.000,0,5.000,0
"05/11/08","10:04:40",7623.000,"cc",28370.856,6,0.100,6662.000,0.200,889.000,0.300,57.000,0.500,15.000,1.000,0,5.000,0
"05/11/08","10:04:46",5465.000,"cc",28326.287,6,0.100,4708.000,0.200,698.000,0.300,55.000,0.500,3.000,1.000,1.000,5.000,0
"05/11/08","10:04:52",4156.000,"cc",28301.627,6,0.100,3609.000,0.200,491.000,0.300,49.000,0.500,6.000,1.000,1.000,5.000,0
"05/11/08","10:04:58",6259.000,"cc",28355.033,6,0.100,5396.000,0.200,792.000,0.300,59.000,0.500,12.000,1.000,0,5.000,0
"05/11/08","10:05:04",5324.000,"cc",28303.613,6,0.100,4616.000,0.200,642.000,0.300,54.000,0.500,10.000,1.000,2.000,5.000,0
"05/11/08","10:05:10",4707.000,"cc",28301.041,6,0.100,4060.000,0.200,586.000,0.300,51.000,0.500,10.000,1.000,0,5.000,0
"05/11/08","10:05:16",4921.000,"cc",28343.619,6,0.100,4261.000,0.200,605.000,0.300,47.000,0.500,8.000,1.000,0,5.000,0
"05/11/08","10:05:22",6116.000,"cc",28297.098,6,0.100,5330.000,0.200,709.000,0.300,66.000,0.500,9.000,1.000,2.000,5.000,0
"05/11/08","10:05:28",6372.000,"cc",28297.807,6,0.100,5574.000,0.200,739.000,0.300,53.000,0.500,6.000,1.000,0,5.000,0
"05/11/08","10:05:34",5162.000,"cc",28332.664,6,0.100,4502.000,0.200,598.000,0.300,50.000,0.500,12.000,1.000,0,5.000,0
"05/11/08","10:05:40",10360.000,"cc",28282.885,6,0.100,9147.000,0.200,1138.000,0.300,63.000,0.500,12.000,1.000,0,5.000,0
"05/11/08","10:05:46",8210.000,"cc",28286.785,6,0.100,7160.000,0.200,977.000,0.300,59.000,0.500,14.000,1.000,0,5.000,0
"05/11/08","10:05:52",8729.000,"cc",28364.408,6,0.100,7557.000,0.200,1070.000,0.300,81.000,0.500,20.000,1.000,1.000,5.000,0
"05/11/08","10:05:58",9185.000,"cc",28316.088,6,0.100,7971.000,0.200,1125.000,0.300,73.000,0.500,16.000,1.000,0,5.000,0
"05/11/08","10:06:04",10387.000,"cc",28285.328,6,0.100,9080.000,0.200,1199.000,0.300,89.000,0.500,19.000,1.000,0,5.000,0
"05/11/08","10:06:09",10278.000,"cc",28337.578,6,0.100,9058.000,0.200,1126.000,0.300,82.000,0.500,12.000,1.000,0,5.000,0
"05/11/08","10:06:15",6194.000,"cc",28313.854,6,0.100,5370.000,0.200,744.000,0.300,65.000,0.500,15.000,1.000,0,5.000,0
"05/11/08","10:06:21",8830.000,"cc",28299.565,6,0.100,7718.000,0.200,1039.000,0.300,59.000,0.500,14.000,1.000,0,5.000,0
"05/11/08","10:06:27",10173.000,"cc",28287.113,6,0.100,8860.000,0.200,1209.000,0.300,89.000,0.500,14.000,1.000,1.000,5.000,0
"05/11/08","10:06:33",6062.000,"cc",28261.729,6,0.100,5270.000,0.200,718.000,0.300,61.000,0.500,12.000,1.000,1.000,5.000,0
"05/11/08","10:06:39",10268.000,"cc",28304.951,6,0.100,8972.000,0.200,1216.000,0.300,71.000,0.500,8.000,1.000,1.000,5.000,0
"05/11/08","10:06:45",6503.000,"cc",28335.445,6,0.100,5675.000,0.200,778.000,0.300,44.000,0.500,6.000,1.000,0,5.000,0
"05/11/08","10:06:51",4813.000,"cc",28291.846,6,0.100,4161.000,0.200,600.000,0.300,42.000,0.500,10.000,1.000,0,5.000,0
"05/11/08","10:06:57",8599.000,"cc",28397.711,6,0.100,7530.000,0.200,1001.000,0.300,52.000,0.500,16.000,1.000,0,5.000,0
"05/11/08","10:07:03",13603.000,"cc",28302.391,6,0.100,11889.000,0.200,1631.000,0.300,68.000,0.500,15.000,1.000,0,5.000,0
"05/11/08","10:07:09",9391.000,"cc",28346.000,6,0.100,8221.000,0.200,1087.000,0.300,70.000,0.500,13.000,1.000,0,5.000,0
"05/11/08","10:07:15",8354.000,"cc",28286.381,6,0.100,7327.000,0.200,951.000,0.300,64.000,0.500,12.000,1.000,0,5.000,0
"05/11/08","10:07:21",11633.000,"cc",28284.332,6,0.100,10230.000,0.200,1328.000,0.300,61.000,0.500,12.000,1.000,2.000,5.000,0
"05/11/08","10:07:27",9122.000,"cc",28338.387,6,0.100,7992.000,0.200,1047.000,0.300,68.000,0.500,15.000,1.000,0,5.000,0
"05/11/08","10:07:33",9214.000,"cc",28278.963,6,0.100,8081.000,0.200,1057.000,0.300,63.000,0.500,13.000,1.000,0,5.000,0
"05/11/08","10:07:39",12745.000,"cc",28349.949,6,0.100,11225.000,0.200,1440.000,0.300,71.000,0.500,9.000,1.000,0,5.000,0
"05/11/08","10:07:45",9476.000,"cc",28322.125,6,0.100,8291.000,0.200,1111.000,0.300,57.000,0.500,15.000,1.000,2.000,5.000,0
"05/11/08","10:07:51",11181.000,"cc",28274.627,6,0.100,9756.000,0.200,1342.000,0.300,71.000,0.500,12.000,1.000,0,5.000,0
"05/11/08","10:07:57",13091.000,"cc",28318.113,6,0.100,11485.000,0.200,1518.000,0.300,78.000,0.500,10.000,1.000,0,5.000,0
"05/11/08","10:08:03",13543.000,"cc",28305.545,6,0.100,11958.000,0.200,1502.000,0.300,75.000,0.500,8.000,1.000,0,5.000,0
"05/11/08","10:08:09",10995.000,"cc",28302.279,6,0.100,9696.000,0.200,1236.000,0.300,60.000,0.500,3.000,1.000,0,5.000,0
"05/11/08","10:08:15",11227.000,"cc",28339.957,6,0.100,9891.000,0.200,1277.000,0.300,54.000,0.500,5.000,1.000,0,5.000,0
"05/11/08","10:08:21",8736.000,"cc",28354.891,6,0.100,7691.000,0.200,1000.000,0.300,37.000,0.500,7.000,1.000,1.000,5.000,0
"05/11/08","10:08:27",8064.000,"cc",28294.438,6,0.100,7007.000,0.200,990.000,0.300,59.000,0.500,7.000,1.000,1.000,5.000,0
"05/11/08","10:08:33",12775.000,"cc",28308.481,6,0.100,11182.000,0.200,1517.000,0.300,70.000,0.500,5.000,1.000,1.000,5.000,0
"05/11/08","10:08:39",13206.000,"cc",28301.764,6,0.100,11660.000,0.200,1433.000,0.300,97.000,0.500,14.000,1.000,2.000,5.000,0
"05/11/08","10:08:45",13126.000,"cc",28270.059,6,0.100,11649.000,0.200,1400.000,0.300,66.000,0.500,11.000,1.000,0,5.000,0
"05/11/08","10:08:51",10188.000,"cc",28309.440,6,0.100,8894.000,0.200,1210.000,0.300,74.000,0.500,10.000,1.000,0,5.000,0
"05/11/08","10:08:57",9621.000,"cc",28300.895,6,0.100,8463.000,0.200,1103.000,0.300,46.000,0.500,9.000,1.000,0,5.000,0
"05/11/08","10:09:03",9146.000,"cc",28365.211,6,0.100,8039.000,0.200,1049.000,0.300,53.000,0.500,4.000,1.000,1.000,5.000,0
"05/11/08","10:09:09",10342.000,"cc",28374.004,6,0.100,9072.000,0.200,1202.000,0.300,63.000,0.500,4.000,1.000,1.000,5.000,0
"05/11/08","10:09:15",13441.000,"cc",28346.830,6,0.100,11842.000,0.200,1511.000,0.300,77.000,0.500,9.000,1.000,2.000,5.000,0
"05/11/08","10:09:21",11706.000,"cc",28291.260,6,0.100,10330.000,0.200,1296.000,0.300,70.000,0.500,10.000,1.000,0,5.000,0
"05/11/08","10:09:27",7988.000,"cc",28266.602,6,0.100,7050.000,0.200,881.000,0.300,50.000,0.500,7.000,1.000,0,5.000,0
"05/11/08","10:09:33",7433.000,"cc",28307.773,6,0.100,6517.000,0.200,858.000,0.300,49.000,0.500,9.000,1.000,0,5.000,0
"05/11/08","10:09:39",9343.000,"cc",28324.877,6,0.100,8230.000,0.200,1037.000,0.300,66.000,0.500,10.000,1.000,0,5.000,0
"05/11/08","10:09:45",18882.000,"cc",28336.932,6,0.100,16680.000,0.200,2114.000,0.300,77.000,0.500,10.000,1.000,1.000,5.000,0
"05/11/08","10:09:51",15305.000,"cc",28375.809,6,0.100,13543.000,0.200,1685.000,0.300,67.000,0.500,10.000,1.000,0,5.000,0
"05/11/08","10:09:57",10340.000,"cc",28307.252,6,0.100,9161.000,0.200,1120.000,0.300,50.000,0.500,9.000,1.000,0,5.000,0
"05/11/08","10:10:03",20684.000,"cc",28347.272,6,0.100,18412.000,0.200,2182.000,0.300,80.000,0.500,10.000,1.000,0,5.000,0
"05/11/08","10:10:09",14923.000,"cc",28296.016,6,0.100,13151.000,0.200,1670.000,0.300,87.000,0.500,15.000,1.000,0,5.000,0
"05/11/08","10:10:15",21143.000,"cc",28327.926,6,0.100,18698.000,0.200,2350.000,0.300,87.000,0.500,8.000,1.000,0,5.000,0
"05/11/08","10:10:21",14873.000,"cc",28355.443,6,0.100,13191.000,0.200,1601.000,0.300,73.000,0.500,8.000,1.000,0,5.000,0
"05/11/08","10:10:27",22404.000,"cc",28319.498,6,0.100,19939.000,0.200,2376.000,0.300,80.000,0.500,8.000,1.000,1.000,5.000,0
"05/11/08","10:10:33",12367.000,"cc",28315.033,6,0.100,10917.000,0.200,1367.000,0.300,77.000,0.500,6.000,1.000,0,5.000,0
"05/11/08","10:10:39",8772.000,"cc",28327.680,6,0.100,7731.000,0.200,975.000,0.300,58.000,0.500,6.000,1.000,2.000,5.000,0
"05/11/08","10:10:45",12317.000,"cc",28246.707,6,0.100,10842.000,0.200,1392.000,0.300,75.000,0.500,8.000,1.000,0,5.000,0
"05/11/08","10:10:51",20756.000,"cc",28295.619,6,0.100,18386.000,0.200,2276.000,0.300,84.000,0.500,8.000,1.000,2.000,5.000,0
"05/11/08","10:10:57",17501.000,"cc",28314.225,6,0.100,15420.000,0.200,1999.000,0.300,75.000,0.500,7.000,1.000,0,5.000,0
"05/11/08","10:11:03",21932.000,"cc",28309.734,6,0.100,19435.000,0.200,2390.000,0.300,102.000,0.500,5.000,1.000,0,5.000,0
"05/11/08","10:11:09",26297.000,"cc",28308.375,6,0.100,23310.000,0.200,2876.000,0.300,101.000,0.500,9.000,1.000,1.000,5.000,0
"05/11/08","10:11:15",22761.000,"cc",28327.898,6,0.100,20216.000,0.200,2452.000,0.300,85.000,0.500,8.000,1.000,0,5.000,0
"05/11/08","10:11:21",16659.000,"cc",28317.633,6,0.100,14833.000,0.200,1737.000,0.300,77.000,0.500,12.000,1.000,0,5.000,0
"05/11/08","10:11:27",23363.000,"cc",28321.356,6,0.100,20599.000,0.200,2638.000,0.300,109.000,0.500,17.000,1.000,0,5.000,0
"05/11/08","10:11:33",20406.000,"cc",28344.824,6,0.100,18016.000,0.200,2261.000,0.300,113.000,0.500,15.000,1.000,1.000,5.000,0
"05/11/08","10:11:39",24570.000,"cc",28356.973,6,0.100,21638.000,0.200,2818.000,0.300,102.000,0.500,12.000,1.000,0,5.000,0
"05/11/08","10:11:45",17591.000,"cc",28302.975,6,0.100,15540.000,0.200,1962.000,0.300,87.000,0.500,2.000,1.000,0,5.000,0
"05/11/08","10:11:51",15105.000,"cc",28297.498,6,0.100,13369.000,0.200,1636.000,0.300,88.000,0.500,10.000,1.000,2.000,5.000,0
"05/11/08","10:11:57",8151.000,"cc",28304.936,6,0.100,7179.000,0.200,907.000,0.300,62.000,0.500,3.000,1.000,0,5.000,0
"05/11/08","10:12:03",14435.000,"cc",28333.764,6,0.100,12672.000,0.200,1671.000,0.300,86.000,0.500,6.000,1.000,0,5.000,0
"05/11/08","10:12:09",13795.000,"cc",28282.250,6,0.100,12051.000,0.200,1634.000,0.300,93.000,0.500,16.000,1.000,1.000,5.000,0
"05/11/08","10:12:15",9113.000,"cc",28282.926,6,0.100,8005.000,0.200,1035.000,0.300,65.000,0.500,8.000,1.000,0,5.000,0
"05/11/08","10:12:21",14437.000,"cc",28289.959,6,0.100,12677.000,0.200,1673.000,0.300,82.000,0.500,5.000,1.000,0,5.000,0
"05/11/08","10:12:27",14220.000,"cc",28290.674,6,0.100,12456.000,0.200,1669.000,0.300,83.000,0.500,11.000,1.000,1.000,5.000,0
"05/11/08","10:12:33",13729.000,"cc",28270.107,6,0.100,12055.000,0.200,1583.000,0.300,78.000,0.500,13.000,1.000,0,5.000,0
"05/11/08","10:12:39",8515.000,"cc",28368.543,6,0.100,7487.000,0.200,957.000,0.300,62.000,0.500,9.000,1.000,0,5.000,0
"05/11/08","10:12:45",7133.000,"cc",28334.479,6,0.100,6202.000,0.200,854.000,0.300,68.000,0.500,8.000,1.000,1.000,5.000,0
"05/11/08","10:12:51",7880.000,"cc",28284.658,6,0.100,6847.000,0.200,977.000,0.300,49.000,0.500,6.000,1.000,1.000,5.000,0
"05/11/08","10:12:57",9306.000,"cc",28322.262,6,0.100,8135.000,0.200,1090.000,0.300,70.000,0.500,11.000,1.000,0,5.000,0
"05/11/08","10:13:03",6030.000,"cc",28313.018,6,0.100,5199.000,0.200,757.000,0.300,66.000,0.500,8.000,1.000,0,5.000,0
"05/11/08","10:13:09",4649.000,"cc",28339.977,6,0.100,4051.000,0.200,549.000,0.300,41.000,0.500,8.000,1.000,0,5.000,0
"05/11/08","10:13:15",6806.000,"cc",28321.547,6,0.100,5966.000,0.200,775.000,0.300,54.000,0.500,11.000,1.000,0,5.000,0
"05/11/08","10:13:21",6061.000,"cc",28303.262,6,0.100,5244.000,0.200,750.000,0.300,55.000,0.500,11.000,1.000,1.000,5.000,0
"05/11/08","10:13:27",6420.000,"cc",28351.934,6,0.100,5616.000,0.200,739.000,0.300,54.000,0.500,11.000,1.000,0,5.000,0
"05/11/08","10:13:33",5707.000,"cc",28341.930,6,0.100,4978.000,0.200,675.000,0.300,45.000,0.500,8.000,1.000,1.000,5.000,0
"05/11/08","10:13:39",6144.000,"cc",28264.106,6,0.100,5368.000,0.200,720.000,0.300,50.000,0.500,6.000,1.000,0,5.000,0
"05/11/08","10:13:45",16575.000,"cc",28322.615,6,0.100,14599.000,0.200,1862.000,0.300,105.000,0.500,9.000,1.000,0,5.000,0
"05/11/08","10:13:51",9920.000,"cc",28352.955,6,0.100,8792.000,0.200,1073.000,0.300,45.000,0.500,10.000,1.000,0,5.000,0
"05/11/08","10:13:57",13799.000,"cc",28359.598,6,0.100,12174.000,0.200,1534.000,0.300,78.000,0.500,13.000,1.000,0,5.000,0
"05/11/08","10:14:03",8308.000,"cc",28326.316,6,0.100,7325.000,0.200,939.000,0.300,35.000,0.500,9.000,1.000,0,5.000,0
"05/11/08","10:14:09",6223.000,"cc",28307.891,6,0.100,5487.000,0.200,660.000,0.300,66.000,0.500,9.000,1.000,1.000,5.000,0
"05/11/08","10:14:15",8345.000,"cc",28276.059,6,0.100,7323.000,0.200,937.000,0.300,71.000,0.500,14.000,1.000,0,5.000,0
"05/11/08","10:14:21",8185.000,"cc",28307.881,6,0.100,7173.000,0.200,948.000,0.300,52.000,0.500,11.000,1.000,1.000,5.000,0
"05/11/08","10:14:27",9060.000,"cc",28213.457,6,0.100,7943.000,0.200,1051.000,0.300,53.000,0.500,13.000,1.000,0,5.000,0
"05/11/08","10:14:33",8771.000,"cc",28308.357,6,0.100,7701.000,0.200,999.000,0.300,62.000,0.500,9.000,1.000,0,5.000,0
"05/11/08","10:14:39",8741.000,"cc",28306.436,6,0.100,7668.000,0.200,1014.000,0.300,51.000,0.500,7.000,1.000,1.000,5.000,0
"05/11/08","10:14:45",9141.000,"cc",28373.080,6,0.100,8018.000,0.200,1041.000,0.300,69.000,0.500,12.000,1.000,1.000,5.000,0
"05/11/08","10:14:51",9293.000,"cc",28313.318,6,0.100,8051.000,0.200,1155.000,0.300,75.000,0.500,12.000,1.000,0,5.000,0
"05/11/08","10:14:57",8287.000,"cc",28363.844,6,0.100,7248.000,0.200,964.000,0.300,63.000,0.500,12.000,1.000,0,5.000,0
"05/11/08","10:15:03",4511.000,"cc",28323.463,6,0.100,3934.000,0.200,526.000,0.300,38.000,0.500,12.000,1.000,1.000,5.000,0
"05/11/08","10:15:09",5409.000,"cc",28310.996,6,0.100,4728.000,0.200,612.000,0.300,57.000,0.500,10.000,1.000,2.000,5.000,0
"05/11/08","10:15:15",5165.000,"cc",28334.229,6,0.100,4491.000,0.200,620.000,0.300,44.000,0.500,10.000,1.000,0,5.000,0
"05/11/08","10:15:21",5582.000,"cc",28329.857,6,0.100,4860.000,0.200,659.000,0.300,47.000,0.500,15.000,1.000,1.000,5.000,0
"05/11/08","10:15:27",5702.000,"cc",28237.938,6,0.100,4950.000,0.200,683.000,0.300,58.000,0.500,11.000,1.000,0,5.000,0
"05/11/08","10:15:33",4076.000,"cc",28309.711,6,0.100,3551.000,0.200,474.000,0.300,42.000,0.500,9.000,1.000,0,5.000,0
"05/11/08","10:15:39",8640.000,"cc",28285.670,6,0.100,7533.000,0.200,1020.000,0.300,78.000,0.500,9.000,1.000,0,5.000,0
"05/11/08","10:15:45",4913.000,"cc",28356.832,6,0.100,4295.000,0.200,568.000,0.300,43.000,0.500,6.000,1.000,1.000,5.000,0
"05/11/08","10:15:51",7552.000,"cc",28361.363,6,0.100,6595.000,0.200,878.000,0.300,63.000,0.500,16.000,1.000,0,5.000,0
"05/11/08","10:15:57",8418.000,"cc",28302.203,6,0.100,7325.000,0.200,995.000,0.300,83.000,0.500,15.000,1.000,0,5.000,0
"05/11/08","10:16:03",5492.000,"cc",28295.231,6,0.100,4811.000,0.200,633.000,0.300,33.000,0.500,15.000,1.000,0,5.000,0
"05/11/08","10:16:09",4578.000,"cc",28341.279,6,0.100,3938.000,0.200,580.000,0.300,51.000,0.500,9.000,1.000,0,5.000,0
"05/11/08","10:16:15",4862.000,"cc",28258.203,6,0.100,4175.000,0.200,629.000,0.300,46.000,0.500,12.000,1.000,0,5.000,0
"05/11/08","10:16:21",6833.000,"cc",28325.072,6,0.100,5930.000,0.200,835.000,0.300,57.000,0.500,11.000,1.000,0,5.000,0
"05/11/08","10:16:27",3087.000,"cc",28389.020,6,0.100,2662.000,0.200,375.000,0.300,40.000,0.500,10.000,1.000,0,5.000,0
"05/11/08","10:16:33",3134.000,"cc",28378.295,6,0.100,2692.000,0.200,385.000,0.300,48.000,0.500,8.000,1.000,1.000,5.000,0
"05/11/08","10:16:39",3133.000,"cc",28315.551,6,0.100,2672.000,0.200,407.000,0.300,42.000,0.500,11.000,1.000,1.000,5.000,0
"05/11/08","10:16:45",2541.000,"cc",28333.805,6,0.100,2169.000,0.200,336.000,0.300,30.000,0.500,6.000,1.000,0,5.000,0
"05/11/08","10:16:51",2363.000,"cc",28321.121,6,0.100,2032.000,0.200,287.000,0.300,36.000,0.500,8.000,1.000,0,5.000,0
"05/11/08","10:16:57",2351.000,"cc",28300.473,6,0.100,2014.000,0.200,298.000,0.300,36.000,0.500,3.000,1.000,0,5.000,0
"05/11/08","10:17:03",2746.000,"cc",28289.481,6,0.100,2301.000,0.200,384.000,0.300,52.000,0.500,9.000,1.000,0,5.000,0
"05/11/08","10:17:09",4081.000,"cc",28277.996,6,0.100,3480.000,0.200,546.000,0.300,46.000,0.500,9.000,1.000,0,5.000,0
"05/11/08","10:17:15",3955.000,"cc",28294.916,6,0.100,3376.000,0.200,508.000,0.300,58.000,0.500,12.000,1.000,1.000,5.000,0
"05/11/08","10:17:21",6525.000,"cc",28324.531,6,0.100,5648.000,0.200,826.000,0.300,43.000,0.500,8.000,1.000,0,5.000,0
"05/11/08","10:17:27",5322.000,"cc",28319.469,6,0.100,4643.000,0.200,633.000,0.300,39.000,0.500,7.000,1.000,0,5.000,0
"05/11/08","10:17:33",3836.000,"cc",28340.541,6,0.100,3315.000,0.200,468.000,0.300,45.000,0.500,8.000,1.000,0,5.000,0
"05/11/08","10:17:39",5333.000,"cc",28261.129,6,0.100,4604.000,0.200,660.000,0.300,58.000,0.500,10.000,1.000,1.000,5.000,0
"05/11/08","10:17:45",3190.000,"cc",28313.773,6,0.100,2717.000,0.200,425.000,0.300,39.000,0.500,9.000,1.000,0,5.000,0
"05/11/08","10:17:51",2565.000,"cc",28388.748,6,0.100,2174.000,0.200,348.000,0.300,37.000,0.500,5.000,1.000,1.000,5.000,0
"05/11/08","10:17:57",2302.000,"cc",28366.596,6,0.100,1971.000,0.200,294.000,0.300,30.000,0.500,7.000,1.000,0,5.000,0
"05/11/08","10:18:03",2065.000,"cc",28285.385,6,0.100,1761.000,0.200,265.000,0.300,37.000,0.500,1.000,1.000,1.000,5.000,0
"05/11/08","10:18:09",2428.000,"cc",28296.777,6,0.100,2092.000,0.200,291.000,0.300,38.000,0.500,7.000,1.000,0,5.000,0
"05/11/08","10:18:15",2792.000,"cc",28317.760,6,0.100,2390.000,0.200,354.000,0.300,36.000,0.500,11.000,1.000,1.000,5.000,0
"05/11/08","10:18:21",4399.000,"cc",28388.865,6,0.100,3745.000,0.200,579.000,0.300,66.000,0.500,9.000,1.000,0,5.000,0
"05/11/08","10:18:27",4667.000,"cc",28286.676,6,0.100,3974.000,0.200,633.000,0.300,54.000,0.500,6.000,1.000,0,5.000,0
"05/11/08","10:18:33",3097.000,"cc",28329.242,6,0.100,2620.000,0.200,414.000,0.300,48.000,0.500,14.000,1.000,1.000,5.000,0
"05/11/08","10:18:39",3010.000,"cc",28293.541,6,0.100,2518.000,0.200,420.000,0.300,63.000,0.500,9.000,1.000,0,5.000,0